Вернуться в каталог

NOAA 16 DEB

АктивенPO
NORAD 41132·DEBRIS·🇺🇸 United States

Запущен Sep 21, 2000 с Vandenberg Space Force Base

Loading…

Ближайшие Пролёты (ближайшие 24 часа)

TLE

СвежийSource: Space-Track

Эпоха: Sep 14, 2026, 07:50 UTC

1 41132U 00055BP  26257.32663235  .00006863  00000-0  12306-2 0  9990
2 41132  98.8647  84.8072 0027683  76.8483 283.5805 14.66864088562764

Отслеживайте NOAA 16 DEB в реальном времени с AllMySat

Download on the App Store